Location: Lane
(33.5226°N, 79.8788°W)
Time: 18:55:21
(UTC+00:00)

Explorer 11/Cluster Stage 4 - Pass Details

Date: 01 October 2022
Orbit: 466 x 1247 km, 28.8° (Epoch: 01 December)

Event Time Altitude Azimuth Distance (km) Brightness Sun altitude
Rises 21:20:39 0° 270° (W) 3,685 11.3 20.2°
Reaches altitude 10° 21:23:45 10° 263° (W) 2,597 11.2 19.6°
Maximum altitude 21:29:22 37° 198° (SSW) 1,182 8.2 18.5°
Drops below altitude 10° 21:33:56 10° 131° (SE) 2,096 8.5 17.6°
Sets 21:36:12 0° 122° (ESE) 2,895 9.1 17.1°
